TimeEST,TemperatureF,Dew PointF,Humidity,Sea Level PressureIn,VisibilityMPH,Wind Direction,Wind SpeedMPH,Gust SpeedMPH,PrecipitationIn,Events,Conditions,WindDirDegrees,DateUTC
12:38 AM,46.4,42.8,87,30.15,10.0,NNW,4.6,-,N/A,,Overcast,330,2013-01-07 05:38:00
12:57 AM,45.0,42.1,90,30.17,10.0,NNW,8.1,-,N/A,,Overcast,340,2013-01-07 05:57:00
1:57 AM,45.0,41.0,86,30.19,10.0,NNW,8.1,-,N/A,,Overcast,330,2013-01-07 06:57:00
2:57 AM,43.0,37.0,80,30.19,10.0,North,8.1,-,N/A,,Clear,360,2013-01-07 07:57:00
3:57 AM,41.0,36.0,82,30.21,10.0,NNW,5.8,-,N/A,,Clear,340,2013-01-07 08:57:00
4:57 AM,39.9,35.1,83,30.24,10.0,NNW,4.6,-,N/A,,Clear,330,2013-01-07 09:57:00
5:57 AM,37.9,34.0,86,30.26,10.0,NNW,3.5,-,N/A,,Clear,340,2013-01-07 10:57:00
6:57 AM,37.9,33.1,83,30.30,10.0,NNW,5.8,-,N/A,,Clear,340,2013-01-07 11:57:00
7:57 AM,37.9,33.1,83,30.33,10.0,North,5.8,-,N/A,,Scattered Clouds,350,2013-01-07 12:57:00
8:57 AM,43.0,33.1,68,30.36,10.0,North,8.1,-,N/A,,Scattered Clouds,10,2013-01-07 13:57:00
9:57 AM,48.0,32.0,54,30.39,10.0,NE,12.7,23.0,N/A,,Partly Cloudy,40,2013-01-07 14:57:00
11:57 AM,52.0,30.0,43,30.38,10.0,NE,15.0,20.7,N/A,,Partly Cloudy,50,2013-01-07 16:57:00
12:57 PM,53.1,30.0,41,30.38,10.0,NE,11.5,18.4,N/A,,Scattered Clouds,50,2013-01-07 17:57:00
1:57 PM,54.0,32.0,43,30.37,10.0,NE,12.7,17.3,N/A,,Scattered Clouds,40,2013-01-07 18:57:00
2:57 PM,53.1,33.1,47,30.40,10.0,ENE,10.4,-,N/A,,Scattered Clouds,60,2013-01-07 19:57:00
3:57 PM,52.0,32.0,47,30.41,10.0,ENE,9.2,-,N/A,,Clear,60,2013-01-07 20:57:00
4:57 PM,48.9,33.1,54,30.43,10.0,NE,4.6,-,N/A,,Clear,40,2013-01-07 21:57:00
5:57 PM,44.1,34.0,68,30.45,10.0,ENE,5.8,-,N/A,,Clear,60,2013-01-07 22:57:00
6:57 PM,43.0,34.0,71,30.46,10.0,ENE,5.8,-,N/A,,Clear,60,2013-01-07 23:57:00
7:57 PM,42.1,34.0,73,30.47,10.0,NE,4.6,-,N/A,,Clear,50,2013-01-08 00:57:00
8:57 PM,41.0,34.0,76,30.47,10.0,NE,5.8,-,N/A,,Clear,50,2013-01-08 01:57:00
9:57 PM,39.9,33.1,77,30.46,10.0,NNE,4.6,-,N/A,,Clear,30,2013-01-08 02:57:00
10:57 PM,37.9,33.1,83,30.45,10.0,NNE,3.5,-,N/A,,Clear,30,2013-01-08 03:57:00
11:57 PM,39.9,34.0,79,30.43,10.0,NNE,8.1,-,N/A,,Clear,20,2013-01-08 04:57:00